When you browse on this site, cookies collect data to enhance your experience and personalize the content and advertising you see.
Visit our Privacy Policy to learn more. By continuing to use the site, you agree to this use of cookies and data.
  • In Hungary
  • List of Countries
  • For 7 days
  • Water Temperature
  • Weather Map
  • News
  • Weather Widgets
  • user-avatar
    Login

    Hourly Weather Sosnovyy Klyuch

    Today, 14 October, Monday

    Time Temperature Precipitation Wind Pressure Humidity
    00:00 +6°C° 0 mm 5 mps 740 mmHg 86%
    01:00 +6°C° 0 mm 5 mps 739 mmHg 88%
    02:00 +6°C° 0 mm 5 mps 740 mmHg 90%
    03:00 +6°C° 0 mm 5 mps 740 mmHg 91%
    04:00 +5°C° 0 mm 6 mps 740 mmHg 94%
    05:00 +5°C° 0 mm 6 mps 740 mmHg 93%
    06:00 +5°C° 0 mm 6 mps 740 mmHg 92%
    07:00 +5°C° 0 mm 7 mps 740 mmHg 90%
    08:00 +6°C° 0 mm 7 mps 741 mmHg 87%
    09:00 +6°C° 0 mm 7 mps 741 mmHg 84%
    10:00 +7°C° 0 mm 8 mps 742 mmHg 81%
    11:00 +7°C° 0.1 mm 8 mps 742 mmHg 79%
    12:00 +7°C° 0.1 mm 8 mps 743 mmHg 77%
    13:00 +8°C° 0.1 mm 7 mps 743 mmHg 75%
    14:00 +8°C° 0.1 mm 7 mps 743 mmHg 78%
    15:00 +8°C° 0.1 mm 7 mps 744 mmHg 82%
    16:00 +6°C° 0.1 mm 7 mps 744 mmHg 85%
    17:00 +6°C° 0.2 mm 7 mps 744 mmHg 85%
    18:00 +6°C° 0.2 mm 7 mps 745 mmHg 85%
    19:00 +6°C° 0.2 mm 7 mps 745 mmHg 85%
    20:00 +7°C° 0.1 mm 6 mps 745 mmHg 86%
    21:00 +5°C° 0.1 mm 6 mps 745 mmHg 87%
    22:00 +6°C° 0.1 mm 5 mps 746 mmHg 89%
    23:00 +5°C° 0 mm 5 mps 745 mmHg 89%

    Tomorrow, 15 October, Tuesday

    Time Temperature Precipitation Wind Pressure Humidity
    00:00 +5°C° 0 mm 5 mps 745 mmHg 90%
    01:00 +5°C° 0 mm 4 mps 745 mmHg 91%
    02:00 +5°C° 0 mm 4 mps 745 mmHg 92%
    03:00 +5°C° 0 mm 4 mps 745 mmHg 93%
    04:00 +5°C° 0 mm 4 mps 744 mmHg 94%
    05:00 +5°C° 0.5 mm 4 mps 743 mmHg 94%
    06:00 +5°C° 0.5 mm 4 mps 742 mmHg 95%
    07:00 +5°C° 0.5 mm 4 mps 741 mmHg 95%
    08:00 +6°C° 1.3 mm 5 mps 741 mmHg 96%
    09:00 +7°C° 1.3 mm 5 mps 740 mmHg 96%
    10:00 +7°C° 1.3 mm 5 mps 739 mmHg 96%
    11:00 +8°C° 0.7 mm 5 mps 739 mmHg 95%
    12:00 +9°C° 0.7 mm 5 mps 738 mmHg 95%
    13:00 +10°C° 0.7 mm 5 mps 738 mmHg 94%
    14:00 +10°C° 0.2 mm 5 mps 739 mmHg 92%
    15:00 +10°C° 0.2 mm 5 mps 739 mmHg 91%
    16:00 +11°C° 0.2 mm 4 mps 739 mmHg 90%
    17:00 +10°C° 0.5 mm 4 mps 740 mmHg 91%
    18:00 +8°C° 0.5 mm 4 mps 741 mmHg 92%
    19:00 +7°C° 0.5 mm 5 mps 741 mmHg 93%
    20:00 +7°C° 0.2 mm 5 mps 742 mmHg 91%
    21:00 +6°C° 0.2 mm 5 mps 743 mmHg 89%
    22:00 +4°C° 0.2 mm 6 mps 744 mmHg 87%
    23:00 +5°C° 0 mm 5 mps 744 mmHg 88%

    Day after tomorrow, 16 October, Wednesday

    Time Temperature Precipitation Wind Pressure Humidity
    00:00 +3°C° 0 mm 5 mps 745 mmHg 89%
    01:00 +4°C° 0 mm 4 mps 746 mmHg 90%
    02:00 +2°C° 0 mm 5 mps 746 mmHg 89%
    03:00 +2°C° 0 mm 5 mps 747 mmHg 89%
    04:00 +1°C° 0 mm 5 mps 748 mmHg 88%
    05:00 +1°C° 0.1 mm 5 mps 748 mmHg 89%
    06:00 +1°C° 0.1 mm 5 mps 748 mmHg 89%
    07:00 +1°C° 0.1 mm 5 mps 749 mmHg 90%
    08:00 +1°C° 0.1 mm 6 mps 749 mmHg 86%
    09:00 +2°C° 0.1 mm 6 mps 750 mmHg 82%
    10:00 +2°C° 0.1 mm 6 mps 751 mmHg 78%
    11:00 +2°C° 0 mm 6 mps 751 mmHg 77%
    12:00 +2°C° 0 mm 6 mps 752 mmHg 76%
    13:00 +2°C° 0 mm 6 mps 752 mmHg 74%
    14:00 +2°C° 0 mm 6 mps 752 mmHg 74%
    15:00 +2°C° 0 mm 5 mps 753 mmHg 74%
    16:00 +2°C° 0 mm 5 mps 753 mmHg 73%
    17:00 +1°C° 0 mm 5 mps 753 mmHg 76%
    18:00 +1°C° 0 mm 4 mps 754 mmHg 79%
    19:00 +1°C° 0 mm 3 mps 754 mmHg 83%
    20:00 +1°C° 0 mm 3 mps 754 mmHg 81%
    21:00 +1°C° 0 mm 3 mps 755 mmHg 80%
    22:00 +3°C° 0 mm 2 mps 755 mmHg 78%
    23:00 +2°C° 0 mm 2 mps 755 mmHg 81%

    17 October, Thursday

    Time Temperature Precipitation Wind Pressure Humidity
    00:00 +1°C° 0 mm 2 mps 755 mmHg 84%
    01:00 +2°C° 0 mm 1 mps 755 mmHg 86%
    02:00 +2°C° 0 mm 1 mps 755 mmHg 87%
    03:00 +2°C° 0 mm 1 mps 756 mmHg 87%
    04:00 +1°C° 0 mm 1 mps 756 mmHg 87%
    05:00 +2°C° 0 mm 1 mps 756 mmHg 87%
    06:00 +2°C° 0 mm 1 mps 756 mmHg 86%
    07:00 +1°C° 0 mm 2 mps 756 mmHg 86%
    08:00 +1°C° 0 mm 3 mps 756 mmHg 85%
    09:00 +1°C° 0 mm 3 mps 755 mmHg 83%
    10:00 +1°C° 0 mm 4 mps 755 mmHg 81%
    11:00 +1°C° 0.1 mm 5 mps 755 mmHg 83%
    12:00 +1°C° 0.1 mm 5 mps 754 mmHg 85%
    13:00 +1°C° 0.1 mm 6 mps 754 mmHg 87%
    14:00 +2°C° 0.1 mm 6 mps 753 mmHg 84%
    15:00 +2°C° 0.1 mm 7 mps 752 mmHg 81%
    16:00 +3°C° 0.1 mm 7 mps 752 mmHg 78%
    17:00 +2°C° 0 mm 8 mps 751 mmHg 76%
    18:00 +2°C° 0 mm 8 mps 750 mmHg 75%
    19:00 +2°C° 0 mm 9 mps 749 mmHg 73%
    20:00 +2°C° 0 mm 9 mps 748 mmHg 73%
    21:00 +2°C° 0 mm 9 mps 748 mmHg 72%
    22:00 +2°C° 0 mm 10 mps 747 mmHg 71%
    23:00 +2°C° 0 mm 9 mps 746 mmHg 70%

    18 October, Friday

    Time Temperature Precipitation Wind Pressure Humidity
    00:00 +2°C° 0 mm 9 mps 746 mmHg 69%
    01:00 +2°C° 0 mm 9 mps 745 mmHg 69%
    02:00 +2°C° 0.3 mm 9 mps 744 mmHg 70%
    03:00 +2°C° 0.3 mm 9 mps 744 mmHg 72%
    04:00 +2°C° 0.3 mm 9 mps 743 mmHg 74%
    05:00 +2°C° 0.3 mm 9 mps 742 mmHg 78%
    06:00 +3°C° 0.3 mm 9 mps 742 mmHg 81%
    07:00 +4°C° 0.3 mm 8 mps 742 mmHg 85%
    08:00 +4°C° 0.3 mm 8 mps 742 mmHg 85%
    09:00 +2°C° 0.3 mm 8 mps 742 mmHg 85%
    10:00 +2°C° 0.3 mm 8 mps 743 mmHg 85%
    11:00 +1°C° 0 mm 8 mps 743 mmHg 80%
    12:00 +1°C° 0 mm 8 mps 744 mmHg 76%
    13:00 0°C° 0 mm 8 mps 744 mmHg 71%
    14:00 0°C° 0 mm 8 mps 744 mmHg 71%
    15:00 0°C° 0 mm 8 mps 745 mmHg 71%
    16:00 -1°C° 0 mm 8 mps 745 mmHg 72%
    17:00 -1°C° 0 mm 8 mps 746 mmHg 74%
    18:00 -1°C° 0 mm 8 mps 746 mmHg 76%
    19:00 -2°C° 0 mm 8 mps 747 mmHg 78%
    20:00 -2°C° 0 mm 8 mps 747 mmHg 79%
    21:00 -4°C° 0 mm 8 mps 748 mmHg 81%
    22:00 -4°C° 0 mm 8 mps 748 mmHg 82%
    23:00 -4°C° 0 mm 8 mps 748 mmHg 82%

    19 October, Saturday

    Time Temperature Precipitation Wind Pressure Humidity
    00:00 -4°C° 0 mm 8 mps 749 mmHg 82%
    01:00 -5°C° 0 mm 8 mps 749 mmHg 82%
    02:00 -5°C° 0 mm 8 mps 750 mmHg 81%
    03:00 -5°C° 0 mm 8 mps 750 mmHg 79%
    04:00 -5°C° 0 mm 8 mps 751 mmHg 78%
    05:00 -4°C° 0 mm 7 mps 751 mmHg 79%
    06:00 -6°C° 0 mm 7 mps 752 mmHg 80%
    07:00 -5°C° 0 mm 6 mps 752 mmHg 81%
    08:00 -5°C° 0 mm 6 mps 753 mmHg 78%
    09:00 -4°C° 0 mm 6 mps 753 mmHg 74%
    10:00 -4°C° 0 mm 6 mps 754 mmHg 71%
    11:00 -3°C° 0 mm 6 mps 754 mmHg 65%
    12:00 -1°C° 0 mm 5 mps 754 mmHg 59%
    13:00 0°C° 0 mm 5 mps 755 mmHg 54%
    14:00 0°C° 0 mm 5 mps 755 mmHg 54%
    15:00 0°C° 0 mm 4 mps 755 mmHg 54%
    16:00 0°C° 0 mm 4 mps 755 mmHg 54%
    17:00 -1°C° 0 mm 4 mps 755 mmHg 59%
    18:00 -1°C° 0 mm 3 mps 756 mmHg 64%
    19:00 -2°C° 0 mm 2 mps 756 mmHg 69%
    20:00 -2°C° 0 mm 2 mps 756 mmHg 69%
    21:00 -2°C° 0 mm 2 mps 757 mmHg 69%
    22:00 0°C° 0 mm 1 mps 757 mmHg 69%
    23:00 0°C° 0 mm 1 mps 757 mmHg 68%
    Show more